User: anonymous   Login
Location: ActonStarParty
(42.4766°N, 71.4538°W)
Time: 13:48:37
(UTC-05:00)
Language:

Cosmos 1300 - Orbit

View from above orbital plane
View from above orbital plane
View from above satellite
View from above satellite

Ground track
Ground track

The orbit data is extracted from the following two-line orbital elements,

1 12785U 81082A   17346.85599014 +.00000791 +00000-0 +38505-4 0  9996
2 12785 082.5050 256.6210 0001869 045.5034 027.7089 15.16976735978694
Epoch (UTC): 12 December 2017 20:32:37
Eccentricity: 0.0001869
inclination: 82.5050°
perigee height: 514 km
apogee height: 516 km
right ascension of ascending node: 256.6210°
argument of perigee: 45.5034°
revolutions per day: 15.16976735
mean anomaly at epoch: 27.7089°
orbit number at epoch: 97869

The dashed part of the orbit path shows where the satellite is in the earth's shadow,  

DLR